Regional Weather Roundup
Issued by NWS

Home | Current Version | Previous Version | Graphics & Text | Print | Product List | Glossary Off
Versions: 1 2 3 4 5 6 7 8 9 10 11 12 13 14 15 16 17 18 19 20 21 22 23 24 25 26 27 28 29 30 31 32 33 34 35 36 37 38 39 40 41 42 43 44 45 46 47 48 49 50

420
ASUS43 KFSD 200502
RWRSD

WEATHER ROUNDUP FOR SOUTH DAKOTA
NATIONAL WEATHER SERVICE SIOUX FALLS SD
1200 AM CDT FRI OCT 20 2017

NOTE: "FAIR" INDICATES FEW OR NO CLOUDS BELOW 12,000 FEET WITH NO
SIGNIFICANT WEATHER AND/OR OBSTRUCTIONS TO VISIBILITY.


SDZ001>005-009-010-012>017-200600-
NORTHWEST AND NORTH CENTRAL SOUTH DAKOTA

CITY           SKY/WX    TMP DP  RH WIND       PRES   REMARKS
BUFFALO          N/A     54  26  34 S9        29.56F
FAITH            N/A     54  32  43 SE15      29.64F
MOBRIDGE       CLEAR     58  46  64 SE14      29.65F
$$

SDZ012>016-024>037-041>051-057-063-072>074-200600-
SOUTHWEST AND SOUTH CENTRAL SOUTH DAKOTA

CITY           SKY/WX    TMP DP  RH WIND       PRES   REMARKS
RAPID CTY ARPT CLEAR     57  24  28 S12       29.69F
PIERRE         CLEAR     63  46  54 E9        29.69F
CUSTER         CLEAR     57  16  20 S6        29.83F
ELLSWORTH AFB  CLEAR     60  22  23 S8        29.68F
PHILIP         CLEAR     70  46  42 S23G30    29.68S
PINE RIDGE     PTCLDY    68  44  42 S22G30    29.75F
SPEARFISH      FAIR      52  27  37 S9        29.70F
WINNER         FAIR      69  47  45 S22G31    29.76F
$$

SDZ004>011-016>023-039-040-200600-
NORTHEAST SOUTH DAKOTA

CITY           SKY/WX    TMP DP  RH WIND       PRES   REMARKS
ABERDEEN       CLEAR     57  49  74 S12       29.73F
WATERTOWN      FAIR      54  49  83 S8        29.81F
BROOKINGS      FAIR      59  51  75 S12       29.85S
SISSETON         N/A     69  49  48 S14G24    29.74F
$$

SDZ017-020-022-023-036>040-048>070-200600-
SOUTHEAST SOUTH DAKOTA

CITY           SKY/WX    TMP DP  RH WIND       PRES   REMARKS
SIOUX FALLS    FAIR      66  53  63 S16       29.86F
HURON          CLEAR     57  49  74 S10       29.77F
CHAMBERLAIN    CLEAR     66  50  57 S12       29.76F
MITCHELL       CLEAR     63  50  62 S17       29.80F
YANKTON        FAIR      59  50  72 SE6       29.87F
$$

ABBREVIATIONS USED IN REMARKS
   TC - TEMPERATURE IN CELSIUS
  WCI - WIND CHILL INDEX
   HX - HEAT INDEX
  VSB - VISIBILITY





USA.gov is the U.S. government's official web portal to all federal, state and local government web resources and services.